Tracking 31027 objects as of 19-Jul-2025
HD Live streaming from Space Station
objects crossing your sky now

BREEZE M DEB (TANK)

Track BREEZE M DEB (TANK) now!
10-day predictions


NORAD ID: 41583
Int'l Code: 2016-035C
Perigee: 378.4 km
Apogee: 13,807.2 km
Inclination: 50.7 °
Period: 259.1 minutes
Semi major axis: 13463 km
RCS: Unknown
Launch date: June 9, 2016
Source: Commonwealth of Independent States (former USSR) (CIS)
Launch site: ()

Note: This is SATELLITE DEBRIS
Your satellite tracking list
COSMOS 2251 DEB
Track 1 satellite(s)




NASA's NSSDC Master Catalog

Two Line Element Set (TLE):
1 41583U 16035C   25199.33950049  .00000773  00000-0  30083-3 0  9999
2 41583  50.7476 206.4127 4987006 135.0781 278.2624  5.55714105183289
Source of the keplerian elements: AFSPC